64013000, 5301503, 2016-11-19 00:00:00, 13.35780, 109.26660,   0,  11,   2, -5.00, 1009.50, 15.00, 1,  10, 255, 0.000
64013000, 5301503, 2016-11-19 01:00:00, 13.35760, 109.26660,   0,  11,   1, -5.00, 1010.20, 15.00, 1,  10, 255, 0.000
64013000, 5301503, 2016-11-19 02:00:00, 13.35760, 109.26660,   0,  11,   1, -5.00, 1010.60, 15.00, 1,  11, 255, 0.000
64013000, 5301503, 2016-11-19 03:00:00, 13.35760, 109.26660,   0,  11,   1, -5.00, 1010.20, 15.00, 1,  11, 255, 0.000
64013000, 5301503, 2016-11-19 04:00:00, 13.35760, 109.26660,   0,  11,   1, -5.00, 1009.70, 15.00, 0,  11, 255, 0.000
64013000, 5301503, 2016-11-19 05:00:00, 13.35760, 109.26660,   0,  11,   1, -5.00, 1009.20, 15.00, 0,  13, 255, 0.000
64013000, 5301503, 2016-11-19 06:00:00, 13.35760, 109.26660,   0,  11,   1, -5.00, 1008.40, 15.00, 1,   8, 255, 0.000
64013000, 5301503, 2016-11-19 07:00:00, 13.35760, 109.26660,   0,  11,   1, -5.00, 1007.80, 15.00, 0,   8, 255, 0.000
64013000, 5301503, 2016-11-19 08:00:00, 13.35760, 109.26660,   0,  11,   1, -5.00, 1007.30, 15.00, 0,  11, 255, 0.000
64013000, 5301503, 2016-11-19 09:00:00, 13.35760, 109.26660,   0,  11,   1, -5.00, 1007.40, 15.00, 1,   8, 255, 0.000
64013000, 5301503, 2016-11-19 10:00:00, 13.35760, 109.26660,   0,  11,   1, -5.00, 1007.90, 15.00, 0,  11, 255, 0.000
64013000, 5301503, 2016-11-19 11:00:00, 13.35760, 109.26660,   0,  12,   1, -5.00, 1008.30, 15.00, 0,  11, 255, 0.000
64013000, 5301503, 2016-11-19 12:00:00, 13.35760, 109.26660,   0,  11,   1, -5.00, 1009.00, 15.00, 0,  11, 255, 0.000
64013000, 5301503, 2016-11-19 13:00:00, 13.35760, 109.26660,   0,  11,   1, -5.00, 1009.80, 15.00, 0,   7, 255, 0.000
64013000, 5301503, 2016-11-19 14:00:00, 13.35760, 109.26660,   0,  11,   1, -5.00, 1010.00, 15.00, 0,   1, 255, 0.000
64013000, 5301503, 2016-11-19 15:00:00, 13.35760, 109.26660,   0,  11,   1, -5.00, 1010.20, 15.00, 0,   8, 255, 0.000
64013000, 5301503, 2016-11-19 16:00:00, 13.35760, 109.26660,   0,  11,   1, -5.00, 1010.10, 15.00, 1,   8, 255, 0.000
64013000, 5301503, 2016-11-19 17:00:00, 13.35760, 109.26660,   0,  11,   1, -5.00, 1009.40, 15.00, 1,  13, 255, 0.000
64013000, 5301503, 2016-11-19 18:00:00, 13.35760, 109.26660,   0,  12,   1, -5.00, 1009.50, 15.00, 0,   1, 255, 0.000
64013000, 5301503, 2016-11-19 19:00:00, 13.35760, 109.26660,   0,  10,   1, -5.00, 1008.80, 15.00, 0,   9, 255, 0.000
64013000, 5301503, 2016-11-19 20:00:00, 13.35760, 109.26660,   0,  11,   1, -5.00, 1008.20, 15.00, 0,   8, 255, 0.000
64013000, 5301503, 2016-11-19 21:00:00, 13.35760, 109.26660,   0,  11,   1, -5.00, 1007.90, 15.00, 1,  11, 255, 0.000
64013000, 5301503, 2016-11-19 22:00:00, 13.35760, 109.26660,   0,  11,   1, -5.00, 1008.90, 15.00, 0,  10, 255, 0.000
64013000, 5301503, 2016-11-19 23:00:00, 13.35760, 109.26660,   0,  12,   1, -5.00, 1009.50, 15.00, 1,  10, 255, 0.000
64013000, 5301503, 2016-11-20 00:00:00, 13.35780, 109.26660,   0,  11,   2, -5.00, 1010.40, 15.00, 0,   8, 255, 0.000
64013000, 5301503, 2016-11-20 01:00:00, 13.35760, 109.26660,   0,  11,   1, -5.00, 1010.80, 15.00, 1,   7, 255, 0.000
64013000, 5301503, 2016-11-20 02:00:00, 13.35780, 109.26660,   0,  11,   1, -5.00, 1011.40, 15.00, 1,  11, 255, 0.000
64013000, 5301503, 2016-11-20 03:00:00, 13.35760, 109.26660,   0,  11,   1, -5.00, 1011.00, 15.00, 1,   7, 255, 0.000
64013000, 5301503, 2016-11-20 04:00:00, 13.35760, 109.26660,   0,  11,   1, -5.00, 1010.10, 15.00, 1,   1, 255, 0.000
64013000, 5301503, 2016-11-20 05:00:00, 13.35760, 109.26660,   0,  10,   1, -5.00, 1008.70, 15.00, 0,  12, 255, 0.000
64013000, 5301503, 2016-11-20 06:00:00, 13.35760, 109.26660,   0,  11,   1, -5.00, 1007.50, 15.00, 1,   7, 255, 0.000
64013000, 5301503, 2016-11-20 07:00:00, 13.35760, 109.26660,   0,  11,   1, -5.00, 1006.90, 15.00, 0,   9, 255, 0.000
64013000, 5301503, 2016-11-20 08:00:00, 13.35760, 109.26660,   0,  11,   1, -5.00, 1006.50, 15.00, 0,   9, 255, 0.000
64013000, 5301503, 2016-11-20 09:00:00, 13.35760, 109.26660,   0,  11,   1, -5.00, 1006.90, 15.00, 1,  21, 255, 0.000
64013000, 5301503, 2016-11-20 10:00:00, 13.35760, 109.26660,   0,  11,   1, -5.00, 1007.50, 15.00, 1,   8, 255, 0.000
64013000, 5301503, 2016-11-20 11:00:00, 13.35780, 109.26660,   0,  12,   1, -5.00, 1008.10, 15.00, 0,  11, 255, 0.000
64013000, 5301503, 2016-11-20 12:00:00, 13.35760, 109.26660,   0,  11,   1, -5.00, 1008.60, 15.00, 0,  17, 255, 0.000
64013000, 5301503, 2016-11-20 13:00:00, 13.35760, 109.26660,   0,  11,   1, -5.00, 1009.20, 15.00, 1,  12, 255, 0.000
64013000, 5301503, 2016-11-20 14:00:00, 13.35760, 109.26660,   0,  11,   1, -5.00, 1009.70, 15.00, 1,   1, 255, 0.000
64013000, 5301503, 2016-11-20 15:00:00, 13.35760, 109.26660,   0,  11,   1, -5.00, 1009.60, 15.00, 0,   4, 255, 0.000
64013000, 5301503, 2016-11-20 16:00:00, 13.35760, 109.26660,   0,  11,   1, -5.00, 1009.50, 15.00, 0,  21, 255, 0.000
64013000, 5301503, 2016-11-20 17:00:00, 13.35760, 109.26660,   0,  11,   1, -5.00, 1008.80, 15.00, 0,   7, 255, 0.000
64013000, 5301503, 2016-11-20 18:00:00, 13.35760, 109.26660,   0,  11,   1, -5.00, 1008.30, 15.00, 0,   8, 255, 0.000
64013000, 5301503, 2016-11-20 19:00:00, 13.35760, 109.26660,   0,  10,   1, -5.00, 1008.20, 15.00, 0,   9, 255, 0.000
64013000, 5301503, 2016-11-20 20:00:00, 13.35760, 109.26660,   0,  11,   1, -5.00, 1007.70, 15.00, 1,   1, 255, 0.000
64013000, 5301503, 2016-11-20 21:00:00, 13.35760, 109.26660,   0,  11,   1, -5.00, 1008.10, 15.00, 0,  10, 255, 0.000
64013000, 5301503, 2016-11-20 22:00:00, 13.35760, 109.26660,   0,  10,   1, -5.00, 1008.30, 15.00, 1,   9, 255, 0.000
64013000, 5301503, 2016-11-20 23:00:00, 13.35760, 109.26660,   0,  12,   1, -5.00, 1009.10, 15.00, 0,   1, 255, 0.000
64013000, 5301503, 2016-11-21 00:00:00, 13.35760, 109.26660,   0,  11,   1, -5.00, 1010.00, 15.00, 1,  11, 255, 0.000
64013000, 5301503, 2016-11-21 01:00:00, 13.35760, 109.26660,   0,  11,   1, -5.00, 1010.60, 15.00, 1,   8, 255, 0.000
64013000, 5301503, 2016-11-21 02:00:00, 13.35760, 109.26660,   0,  11,   1, -5.00, 1010.60, 15.00, 1,  11, 255, 0.000
64013000, 5301503, 2016-11-21 03:00:00, 13.35760, 109.26660,   0,  11,   1, -5.00, 1010.10, 15.00, 0,   8, 255, 0.000
64013000, 5301503, 2016-11-21 04:00:00, 13.35760, 109.26660,   0,  11,   1, -5.00, 1009.30, 15.00, 1,   8, 255, 0.000
64013000, 5301503, 2016-11-21 05:00:00, 13.35760, 109.26660,   0,  11,   1, -5.00, 1008.30, 15.00, 0,   8, 255, 0.000
64013000, 5301503, 2016-11-21 06:00:00, 13.35760, 109.26660,   0,  11,   1, -5.00, 1007.30, 15.00, 0,   9, 255, 0.000
64013000, 5301503, 2016-11-21 07:00:00, 13.35760, 109.26660,   0,  11,   1, -5.00, 1006.80, 15.00, 1,  10, 255, 0.000
64013000, 5301503, 2016-11-21 08:00:00, 13.35760, 109.26660,   0,  11,   1, -5.00, 1006.20, 15.00, 1,  11, 255, 0.000
64013000, 5301503, 2016-11-21 09:00:00, 13.35760, 109.26660,   0,  11,   1, -5.00, 1006.40, 15.00, 1,   9, 255, 0.000
64013000, 5301503, 2016-11-21 10:00:00, 13.35760, 109.26660,   0,  11,   1, -5.00, 1007.20, 15.00, 1,  11, 255, 0.000
64013000, 5301503, 2016-11-21 11:00:00, 13.35760, 109.26660,   0,  12,   1, -5.00, 1008.00, 15.00, 1,  11, 255, 0.000
64013000, 5301503, 2016-11-21 12:00:00, 13.35760, 109.26660,   0,  11,   1, -5.00, 1008.50, 15.00, 0,   9, 255, 0.000
64013000, 5301503, 2016-11-21 13:00:00, 13.35760, 109.26660,   0,  12,   1, -5.00, 1009.30, 15.00, 1,   9, 255, 0.000
64013000, 5301503, 2016-11-21 14:00:00, 13.35760, 109.26660,   0,  11,   1, -5.00, 1009.60, 15.00, 0,  13, 255, 0.000
64013000, 5301503, 2016-11-21 15:00:00, 13.35760, 109.26660,   0,  11,   1, -5.00, 1009.40, 15.00, 0,   8, 255, 0.000
64013000, 5301503, 2016-11-21 16:00:00, 13.35760, 109.26660,   0,  11,   1, -5.00, 1009.20, 15.00, 0,   7, 255, 0.000
64013000, 5301503, 2016-11-21 17:00:00, 13.35760, 109.26660,   0,  11,   2, -5.00, 1008.90, 15.00, 0,  12, 255, 0.000
64013000, 5301503, 2016-11-21 18:00:00, 13.35760, 109.26660,   0,  11,   1, -5.00, 1008.30, 15.00, 0,  10, 255, 0.000
64013000, 5301503, 2016-11-21 19:00:00, 13.35760, 109.26660,   0,  10,   1, -5.00, 1007.70, 15.00, 0,   8, 255, 0.000
64013000, 5301503, 2016-11-21 20:00:00, 13.35760, 109.26660,   0,  11,   1, -5.00, 1007.70, 15.00, 0,   4, 255, 0.000
64013000, 5301503, 2016-11-21 21:00:00, 13.35760, 109.26660,   0,  11,   1, -5.00, 1007.70, 15.00, 0,   8, 255, 0.000
64013000, 5301503, 2016-11-21 22:00:00, 13.35760, 109.26660,   0,  11,   1, -5.00, 1008.20, 15.00, 0,   9, 255, 0.000
64013000, 5301503, 2016-11-21 23:00:00, 13.35760, 109.26660,   0,  12,   1, -5.00, 1008.90, 15.00, 0,  10, 255, 0.000
64013000, 5301503, 2016-11-22 00:00:00, 13.35760, 109.26660,   0,  11,   1, -5.00, 1009.60, 15.00, 0,  17, 255, 0.000
64013000, 5301503, 2016-11-22 01:00:00, 13.35760, 109.26660,   0,  11,   1, -5.00, 1010.30, 15.00, 1,  10, 255, 0.000
64013000, 5301503, 2016-11-22 02:00:00, 13.35760, 109.26660,   0,  11,   1, -5.00, 1010.90, 15.00, 1,  10, 255, 0.000
64013000, 5301503, 2016-11-22 03:00:00, 13.35760, 109.26660,   0,  11,   1, -5.00, 1010.80, 15.00, 0,   8, 255, 0.000
64013000, 5301503, 2016-11-22 04:00:00, 13.35760, 109.26660,   0,  11,   1, -5.00, 1010.40, 15.00, 1,   9, 255, 0.000
64013000, 5301503, 2016-11-22 05:00:00, 13.35780, 109.26660,   0,  11,   1, -5.00, 1009.30, 15.00, 0,  10, 255, 0.000
64013000, 5301503, 2016-11-22 06:00:00, 13.35760, 109.26660,   0,  10,   1, -5.00, 1008.40, 15.00, 1,  11, 255, 0.000
64013000, 5301503, 2016-11-22 07:00:00, 13.35760, 109.26660,   0,  11,   1, -5.00, 1007.70, 15.00, 0,   9, 255, 0.000
64015370, 5301502, 2016-11-19 00:00:00, 18.79400, 112.26040,   0,  10,   5, 27.42, 1010.80, 14.80, 4,  11, 255, 0.000
64015370, 5301502, 2016-11-19 01:00:00, 18.79340, 112.24340,   0,  10,   5, 27.43, 1011.30, 14.80, 7,  10, 255, 0.000
64015370, 5301502, 2016-11-19 02:00:00, 18.79260, 112.22920,   0,  10,   5, 27.46, 1011.50, 14.80, 6,   9, 255, 0.000
64015370, 5301502, 2016-11-19 03:00:00, 18.79200, 112.21440,   0,  10,   4, 27.50, 1011.50, 14.80, 6,  14, 255, 0.000
64015370, 5301502, 2016-11-19 04:00:00, 18.78980, 112.20100,   0,  11,   8, 27.56, 1010.80, 14.80, 8,  11, 255, 0.000
64015370, 5301502, 2016-11-19 05:00:00, 18.78680, 112.18820,   0,  11,   2, 27.60, 1010.00, 14.80, 6,   9, 255, 0.000
64015370, 5301502, 2016-11-19 06:00:00, 18.78300, 112.17400,   0,  11,   8, 27.67, 1009.30, 14.80, 5,  11, 255, 0.000
64015370, 5301502, 2016-11-19 07:00:00, 18.77680, 112.16300,   0,  11,   5, 27.68, 1008.70, 14.80, 7,  11, 255, 0.000
64015370, 5301502, 2016-11-19 08:00:00, 18.76880, 112.15400,   0,  11,   8, 27.67, 1008.60, 14.80, 4,  22, 255, 0.000
64015370, 5301502, 2016-11-19 09:00:00, 18.76140, 112.14420,   0,  11,   5, 27.68, 1008.60, 14.80, 6,   9, 255, 0.000
64015370, 5301502, 2016-11-19 10:00:00, 18.75560, 112.13300,   0,  11,   6, 27.62, 1009.10, 14.80, 4,  14, 255, 0.000
64015370, 5301502, 2016-11-19 11:00:00, 18.75340, 112.12020,   0,  11,   7, 27.55, 1009.70, 14.80, 5,   7, 255, 0.000
64015370, 5301502, 2016-11-19 12:00:00, 18.75220, 112.10760,   0,  10,   5, 27.62, 1010.40, 14.80, 4,   8, 255, 0.000
64015370, 5301502, 2016-11-19 13:00:00, 18.75160, 112.09500,   0,  11,   2, 27.57, 1010.70, 14.80, 5,  10, 255, 0.000
64015370, 5301502, 2016-11-19 14:00:00, 18.75020, 112.08220,   0,  11,   2, 27.53, 1010.90, 14.80, 5,   1, 255, 0.000
64015370, 5301502, 2016-11-19 15:00:00, 18.74940, 112.07000,   0,  10,   4, 27.55, 1010.90, 14.80, 4,  11, 255, 0.000
64015370, 5301502, 2016-11-19 16:00:00, 18.74980, 112.05580,   0,  11,   5, 27.51, 1011.00, 14.80, 5,  22, 255, 0.000
64015370, 5301502, 2016-11-19 17:00:00, 18.74740, 112.04420,   0,  11,   5, 27.50, 1010.50, 14.80, 4,  10, 255, 0.000
64015370, 5301502, 2016-11-19 18:00:00, 18.74420, 112.03360,   0,  11,   4, 27.48, 1009.90, 14.80, 7,  10, 255, 0.000
64015370, 5301502, 2016-11-19 19:00:00, 18.74160, 112.02440,   0,  11,   4, 27.49, 1009.40, 14.80, 4,  12, 255, 0.000
64015370, 5301502, 2016-11-19 20:00:00, 18.73620, 112.01740,   0,  11,   5, 27.50, 1009.50, 14.80, 4,  12, 255, 0.000
64015370, 5301502, 2016-11-19 21:00:00, 18.73320, 112.00740,   0,  10,   2, 27.50, 1009.50, 14.80, 5,  11, 255, 0.000
64015370, 5301502, 2016-11-19 22:00:00, 18.73020, 111.99860,   0,  11,   5, 27.48, 1009.80, 14.80, 4,  14, 255, 0.000
64015370, 5301502, 2016-11-19 23:00:00, 18.72680, 111.99060,   0,  11,   4, 27.47, 1010.60, 14.80, 4,  10, 255, 0.000
64015370, 5301502, 2016-11-20 00:00:00, 18.71960, 111.98400,   0,  10,   4, 27.48, 1011.20, 14.80, 5,   8, 255, 0.000
64015370, 5301502, 2016-11-20 01:00:00, 18.71000, 111.97720,   0,  10,   2, 27.50, 1011.80, 14.80, 5,   9, 255, 0.000
64015370, 5301502, 2016-11-20 02:00:00, 18.70140, 111.96760,   0,  10,   2, 27.58, 1012.20, 14.80, 5,   8, 255, 0.000
64015370, 5301502, 2016-11-20 03:00:00, 18.69540, 111.95700,   0,  10,   2, 27.67, 1011.90, 14.80, 5,   9, 255, 0.000
64015370, 5301502, 2016-11-20 04:00:00, 18.68720, 111.94680,   0,  10,   2, 27.77, 1011.40, 14.80, 5,   8, 255, 0.000
64015370, 5301502, 2016-11-20 05:00:00, 18.67880, 111.93600,   0,  11,   4, 27.86, 1010.30, 14.80, 6,  21, 255, 0.000
64015370, 5301502, 2016-11-20 06:00:00, 18.67020, 111.92440,   0,  11,   4, 27.89, 1009.20, 14.80, 5,  11, 255, 0.000
64015370, 5301502, 2016-11-20 07:00:00, 18.66120, 111.91120,   0,  10,   2, 27.93, 1008.60, 14.80, 4,   9, 255, 0.000
64015370, 5301502, 2016-11-20 08:00:00, 18.65160, 111.89820,   0,  11,   2, 27.89, 1008.30, 14.80, 5,  20, 255, 0.000
64015370, 5301502, 2016-11-20 09:00:00, 18.64100, 111.88680,   0,  10,   4, 27.84, 1008.20, 14.80, 6,  19, 255, 0.000
64015370, 5301502, 2016-11-20 10:00:00, 18.63120, 111.87620,   0,  11,   4, 27.80, 1008.70, 14.80, 5,  10, 255, 0.000
64015370, 5301502, 2016-11-20 11:00:00, 18.62440, 111.86160,   0,  12,   1, 27.76, 1009.10, 14.80, 5,   8, 255, 0.000
64015370, 5301502, 2016-11-20 12:00:00, 18.61740, 111.84680,   0,  11,   2, 27.74, 1009.70, 14.80, 5,   8, 255, 0.000
64015370, 5301502, 2016-11-20 13:00:00, 18.61240, 111.83060,   0,  11,   3, 27.71, 1010.10, 14.80, 4,  11, 255, 0.000
64015370, 5301502, 2016-11-20 14:00:00, 18.60720, 111.81720,   0,  11,   2, 27.69, 1010.20, 14.80, 6,   1, 255, 0.000
64015370, 5301502, 2016-11-20 15:00:00, 18.60160, 111.80580,   0,  10,   2, 27.66, 1010.40, 14.80, 5,  19, 255, 0.000
64015370, 5301502, 2016-11-20 16:00:00, 18.59920, 111.79260,   0,  11,   2, 27.67, 1010.30, 14.80, 4,  12, 255, 0.000
64015370, 5301502, 2016-11-20 17:00:00, 18.59900, 111.77920,   0,  11,   2, 27.65, 1010.10, 14.80, 4,  11, 255, 0.000
64015370, 5301502, 2016-11-20 18:00:00, 18.59820, 111.76540,   0,  11,   2, 27.64, 1009.60, 14.80, 4,  10, 255, 0.000
64015370, 5301502, 2016-11-20 19:00:00, 18.59680, 111.75240,   0,  11,   1, 27.63, 1008.80, 14.80, 4,  11, 255, 0.000
64015370, 5301502, 2016-11-20 20:00:00, 18.59340, 111.74280,   0,  11,   2, 27.62, 1008.90, 14.80, 4,   1, 255, 0.000
64015370, 5301502, 2016-11-20 21:00:00, 18.59040, 111.73440,   0,  11,   4, 27.60, 1008.90, 14.80, 6,  10, 255, 0.000
64015370, 5301502, 2016-11-20 22:00:00, 18.58720, 111.72680,   0,  10,   7, 27.61, 1009.00, 14.80, 5,  11, 255, 0.000
64015370, 5301502, 2016-11-20 23:00:00, 18.58320, 111.72060,   0,  10,   3, 27.59, 1009.90, 14.80, 6,  12, 255, 0.000
64015370, 5301502, 2016-11-21 00:00:00, 18.57920, 111.71420,   0,  10,   2, 27.58, 1010.60, 14.80, 5,  10, 255, 0.000
64015370, 5301502, 2016-11-21 01:00:00, 18.57480, 111.70780,   0,  10,   3, 27.61, 1011.00, 14.80, 5,   8, 255, 0.000
64015370, 5301502, 2016-11-21 02:00:00, 18.56940, 111.70180,   0,  11,   3, 27.63, 1011.60, 14.80, 4,  10, 255, 0.000
64015370, 5301502, 2016-11-21 03:00:00, 18.56160, 111.69480,   0,  10,   2, 27.72, 1011.00, 14.80, 6,  13, 255, 0.000
64015370, 5301502, 2016-11-21 04:00:00, 18.55380, 111.68640,   0,  10,   3, 27.77, 1010.30, 14.80, 4,  13, 255, 0.000
64015370, 5301502, 2016-11-21 05:00:00, 18.54640, 111.67820,   0,  11,   7, 27.63, 1009.80, 14.80, 5,   9, 255, 0.000
64015370, 5301502, 2016-11-21 06:00:00, 18.53780, 111.66920,   0,  11,   1, 27.63, 1008.30, 14.80, 4,  10, 255, 0.000
64015370, 5301502, 2016-11-21 07:00:00, 18.52880, 111.65980,   0,  11,   2, 27.70, 1007.90, 14.80, 5,  11, 255, 0.000
64015370, 5301502, 2016-11-21 08:00:00, 18.51900, 111.64920,   0,  11,   3, 27.72, 1008.00, 14.80, 6,  15, 255, 0.000
64015370, 5301502, 2016-11-21 09:00:00, 18.51000, 111.63740,   0,  10,   6, 27.69, 1008.00, 14.80, 4,  10, 255, 0.000
64015370, 5301502, 2016-11-21 10:00:00, 18.50180, 111.62680,   0,  11,   5, 27.67, 1008.50, 14.80, 6,  10, 255, 0.000
64015370, 5301502, 2016-11-21 11:00:00, 18.49460, 111.61620,   0,  12,   4, 27.63, 1008.90, 14.80, 6,  22, 255, 0.000
64015370, 5301502, 2016-11-21 12:00:00, 18.48740, 111.60560,   0,  10,   4, 27.63, 1009.30, 14.80, 8,   9, 255, 0.000
64015370, 5301502, 2016-11-21 13:00:00, 18.48180, 111.59360,   0,  10,   7, 27.63, 1009.80, 14.80, 4,  11, 255, 0.000
64015370, 5301502, 2016-11-21 14:00:00, 18.47740, 111.58180,   0,  11,   2, 27.63, 1009.70, 14.80, 5,  10, 255, 0.000
64015370, 5301502, 2016-11-21 15:00:00, 18.47260, 111.56980,   0,  11,   6, 27.59, 1009.60, 14.80, 6,  12, 255, 0.000
64015370, 5301502, 2016-11-21 16:00:00, 18.46840, 111.55880,   0,  11,   6, 27.61, 1009.20, 14.80, 5,  11, 255, 0.000
64015370, 5301502, 2016-11-21 17:00:00, 18.46380, 111.54880,   0,  11,   6, 27.58, 1008.90, 14.80, 6,  11, 255, 0.000
64015370, 5301502, 2016-11-21 18:00:00, 18.46380, 111.54880,  61,  11,  12, 27.58, 1008.50, 14.80, 4,  12, 255, 0.000
64015370, 5301502, 2016-11-21 19:00:00, 18.45260, 111.53020,   0,  11,   7, 27.59, 1008.40, 14.80, 9,  10, 255, 0.000
64015370, 5301502, 2016-11-21 20:00:00, 18.44720, 111.52040,   0,  11,   7, 27.55, 1008.30, 14.80, 5,  18, 255, 0.000
64015370, 5301502, 2016-11-21 21:00:00, 18.44720, 111.52040,  61,  10,  12, 27.57, 1008.50, 14.80, 5,  18, 255, 0.000
64015370, 5301502, 2016-11-21 22:00:00, 18.43640, 111.50120,   0,  11,   4, 27.58, 1008.80, 14.80, 4,  12, 255, 0.000
64015370, 5301502, 2016-11-21 23:00:00, 18.43260, 111.49180,   0,  11,   8, 27.54, 1009.60, 14.80, 6,   9, 255, 0.000
64015370, 5301502, 2016-11-22 00:00:00, 18.42860, 111.48300,   0,  10,   2, 27.55, 1010.10, 14.80, 6,   9, 255, 0.000
64015370, 5301502, 2016-11-22 01:00:00, 18.42340, 111.47500,   0,  10,   5, 27.57, 1010.90, 14.80, 7,   8, 255, 0.000
64015370, 5301502, 2016-11-22 02:00:00, 18.41760, 111.46740,   0,  10,   5, 27.60, 1011.30, 14.80, 5,  13, 255, 0.000
64015370, 5301502, 2016-11-22 03:00:00, 18.41100, 111.46060,   0,  11,   2, 27.63, 1011.00, 14.80, 5,  11, 255, 0.000
64015370, 5301502, 2016-11-22 04:00:00, 18.40260, 111.45440,   0,  11,   6, 27.65, 1010.30, 14.80, 5,  10, 255, 0.000
64015370, 5301502, 2016-11-22 05:00:00, 18.39360, 111.44640,   0,  10,   6, 27.71, 1009.80, 14.80, 5,   9, 255, 0.000
64015370, 5301502, 2016-11-22 06:00:00, 18.38540, 111.43800,   0,  10,   5, 27.64, 1009.00, 14.80, 4,   8, 255, 0.000
64015370, 5301502, 2016-11-22 07:00:00, 18.37760, 111.42880,   0,  10,   7, 27.64, 1008.40, 14.80, 4,  12, 255, 0.000
